Weather History for Minneapolis, MN

Change the Weather History Date:

Tuesday, May 8, 2012

  Actual Average Record
Temperature  
Mean Temperature 55 °F 57 °F  
Max Temperature 60 °F 67 °F 90 °F (1874)
Min Temperature 49 °F 47 °F 28 °F (1960)
Degree Days  
Heating Degree Days 10 9  
Month to date heating degree days 34 79  
Since 1 July heating degree days 5763 7397  
Cooling Degree Days 0 1  
Month to date cooling degree days 10 6  
Year to date cooling degree days 26 11  
Growing Degree Days 4 (Base 50)    
Moisture  
Dew Point 45 °F    
Average Humidity 76    
Maximum Humidity 89    
Minimum Humidity 62    
Precipitation  
Precipitation 0.06 in 0.11 in 1.73 in (1872)
Month to date precipitation 4.29 0.88  
Year to date precipitation 10.80 7.10  
Snow  
Snow 0.00 in 0.00 in 0.50 in (1923)
Month to date snowfall T 0.0  
Since 1 July snowfall 22.3 54.4  
Snow Depth 0.00 in    
Sea Level Pressure  
Sea Level Pressure 29.89 in    
Wind  
Wind Speed 6 mph (West)    
Max Wind Speed 21 mph    
Max Gust Speed 25 mph    
Visibility 10 miles    
Events Rain    
T = Trace of Precipitation, MM = Missing Value Source: NWS Daily Summary

Daily Weather History Graph

Daily Weather History Graph

Search for Another Location

Airport:

Trip Planner

Search our weather history database for the weather conditions in past years. The results will help you decide how hot, cold, wet, or windy it might be!

Date:

Astronomy

May. 08, 2012 Rise Set
Actual Time 5:52 AM CDT 8:27 PM CDT
Civil Twilight 5:18 AM CDT 9:00 PM CDT
Nautical Twilight 4:37 AM CDT 9:42 PM CDT
Astronomical Twilight 3:49 AM CDT 10:30 PM CDT
Moon 11:41 PM CDT (5/8) 7:56 AM CDT (5/8)
Length of Visible Light 15h 41m
Length of Day
14h 35m
Waning Gibbous, 90% of the Moon is Illuminated
May 8
Waning Gibbous
May 12
Last Quarter
May 20
New
May 28
First Quarter
Jun 4
Full

Hourly Weather History & Observations

Time (CDT) Temp. Dew Point Humidity Pressure Visibility Wind Dir Wind Speed Gust Speed Precip Events Conditions
12:53 AM 54.0 °F 42.1 °F 64% 29.89 in 10.0 mi West 8.1 mph - N/A   Clear
1:53 AM 53.1 °F 42.1 °F 66% 29.89 in 10.0 mi WSW 6.9 mph - N/A   Clear
2:53 AM 51.1 °F 42.1 °F 71% 29.88 in 10.0 mi WSW 6.9 mph - N/A   Clear
3:53 AM 50.0 °F 43.0 °F 77% 29.88 in 10.0 mi WSW 5.8 mph - N/A   Scattered Clouds
4:53 AM 50.0 °F 43.0 °F 77% 29.86 in 10.0 mi WSW 6.9 mph - N/A   Mostly Cloudy
5:53 AM 48.9 °F 43.0 °F 80% 29.86 in 10.0 mi WSW 4.6 mph - N/A   Scattered Clouds
6:53 AM 50.0 °F 44.1 °F 80% 29.88 in 10.0 mi WSW 5.8 mph - N/A   Mostly Cloudy
7:53 AM 51.1 °F 44.1 °F 77% 29.88 in 10.0 mi WSW 5.8 mph - N/A   Overcast
8:53 AM 51.1 °F 46.0 °F 83% 29.88 in 10.0 mi SW 3.5 mph - 0.00 in   Overcast
9:48 AM 53.6 °F 44.6 °F 72% 29.88 in 10.0 mi West 9.2 mph - N/A   Overcast
9:53 AM 53.1 °F 45.0 °F 74% 29.88 in 10.0 mi West 10.4 mph - N/A   Overcast
10:14 AM 53.6 °F 46.4 °F 77% 29.88 in 10.0 mi WSW 9.2 mph - N/A   Overcast
10:30 AM 53.6 °F 46.4 °F 77% 29.88 in 10.0 mi West 8.1 mph - N/A   Overcast
10:38 AM 55.4 °F 46.4 °F 72% 29.88 in 10.0 mi West 10.4 mph - N/A   Overcast
10:50 AM 55.4 °F 46.4 °F 72% 29.87 in 10.0 mi West 8.1 mph - N/A   Overcast
10:53 AM 55.0 °F 46.0 °F 72% 29.88 in 10.0 mi WSW 5.8 mph - N/A   Overcast
11:37 AM 50.0 °F 46.4 °F 87% 29.88 in 10.0 mi NW 9.2 mph - 0.01 in Rain Light Rain
11:53 AM 50.0 °F 46.0 °F 86% 29.89 in 10.0 mi NW 6.9 mph - 0.01 in Rain Light Rain
12:53 PM 55.9 °F 46.0 °F 69% 29.89 in 10.0 mi WNW 9.2 mph - 0.00 in   Mostly Cloudy
1:53 PM 55.0 °F 44.1 °F 67% 29.88 in 10.0 mi NW 8.1 mph - N/A   Mostly Cloudy
2:53 PM 55.9 °F 44.1 °F 64% 29.88 in 10.0 mi NW 12.7 mph - N/A   Overcast
3:53 PM 55.0 °F 44.1 °F 67% 29.88 in 10.0 mi WNW 17.3 mph 25.3 mph N/A   Mostly Cloudy
4:07 PM 53.6 °F 44.6 °F 72% 29.88 in 10.0 mi WNW 11.5 mph - 0.00 in Rain Light Rain
4:53 PM 57.9 °F 45.0 °F 62% 29.89 in 10.0 mi NW 6.9 mph - 0.00 in   Mostly Cloudy
5:53 PM 52.0 °F 46.9 °F 83% 29.90 in 7.0 mi North 5.8 mph - 0.04 in Rain Light Rain
6:53 PM 54.0 °F 46.9 °F 77% 29.90 in 10.0 mi SSW 3.5 mph - 0.01 in   Scattered Clouds
7:53 PM 54.0 °F 48.9 °F 83% 29.91 in 10.0 mi Calm Calm - N/A   Scattered Clouds
8:53 PM 53.1 °F 48.9 °F 86% 29.93 in 10.0 mi Calm Calm - N/A   Scattered Clouds
9:53 PM 51.1 °F 48.9 °F 92% 29.95 in 10.0 mi Calm Calm - N/A   Scattered Clouds
10:53 PM 50.0 °F 46.9 °F 89% 29.96 in 10.0 mi Variable 5.8 mph - N/A   Partly Cloudy
11:53 PM 50.0 °F 46.9 °F 89% 29.97 in 10.0 mi North 5.8 mph - N/A   Partly Cloudy